Hourly Data Report for October 01, 2017

All times are specified in Local Standard Time (LST). Add 1 hour to adjust for Daylight Saving Time where and when it is observed.

KENTVILLE CDA CS
NOVA SCOTIA

45°04'00.000" N
64°29'00.000" W
48.70 m
8202810
71671
XKT

Download Data

Hourly Data (October 2017)
Hourly Data Report for October 1, 2017
Temp Definition
°C
Dew Point Temp Definition
°C
Rel Hum Definition
%
Wind Dir Definition
10's deg

Wind Spd Definition
km/h
Visibility Definition
km
Stn Press Definition
kPa
Hmdx Definition


Wind Chill Definition


Weather Definition


TIME
00:00 3.5 2.8 95 19 6   101.86     LegendNANA
01:00 3.3 2.7 96 20 5   101.86     LegendNANA
02:00 2.7 2.3 97 22 5   101.85     LegendNANA
03:00 2.2 1.8 97 23 2   101.84     LegendNANA
04:00 1.4 1.1 98 0 1   101.80     LegendNANA
05:00 1.3 1.0 99 29 1   101.77     LegendNANA
06:00 1.2 1.1 99 22 3   101.76     LegendNANA
07:00 1.6 1.4 99 0 1   101.78     LegendNANA
08:00 6.1 5.6 97 24 2   101.79     LegendNANA
09:00 10.7 5.2 69 24 12   101.76     LegendNANA
10:00 12.2 4.7 60 24 16   101.72     LegendNANA
11:00 13.3 4.5 55 24 18   101.68     LegendNANA
12:00 14.7 5.2 53 25 14   101.57     LegendNANA
13:00 15.4 3.7 46 24 16   101.51     LegendNANA
14:00 15.8 2.1 40 26 17   101.40     LegendNANA
15:00 16.0 0.7 35 25 15   101.37     LegendNANA
16:00 15.6 2.7 42 25 14   101.32     LegendNANA
17:00 14.7 2.5 44 24 11   101.30     LegendNANA
18:00 12.1 3.4 55 22 10   101.34     LegendNANA
19:00 10.0 3.4 64 22 6   101.36     LegendNANA
20:00 9.4 3.6 67 26 6   101.39     LegendNANA
21:00 9.4 4.8 73 24 7   101.45     LegendNANA
22:00 9.3 5.2 76 24 6   101.43     LegendNANA
23:00 10.0 6.1 76 25 12   101.41     LegendNANA

Notes on Data Quality.

Legend

  • E = Estimated
  • M = Missing
  • NA = Not Available
  • ‡ = Partner data that is not subject to review by the National Climate Archives
Date modified: